Location: Bishop�s Knoyle
(51.0728°N, 2.1714°W)
Time: 13:54:22
(UTC+00:00)

NOSS 3-4 (C) - Pass Details

Date: 18 January 2021
Orbit: 878 x 1335 km, 63.4° (Epoch: 16 February)

Event Time Altitude Azimuth Distance (km) Brightness Sun altitude
Rises 19:23:09 0° 271° (W) 3,535 7.8 -25.6°
Reaches altitude 10° 19:25:52 10° 281° (WNW) 2,636 6.7 -26.1°
Maximum altitude 19:31:20 32° 344° (NNW) 1,624 4.7 -26.9°
Enters shadow 19:33:26 27° 17° (NNE) 1,853 4.8 -27.3°
